1281484827217,0.606630
1281484887217,0.604514
1281484947217,0.609075
1281485007217,0.613100
1281485067217,0.611566
1281485127217,0.616106
1281485187217,0.608999
1281485247217,0.613246
1281485307217,0.607485
1281485367217,0.609825
1281485427217,0.606772
1281485487217,0.606945
1281485547217,0.615106
1281485607217,0.613211
1281485667217,0.612086
1281485727217,0.607224
1281485787217,0.604711
1281485847217,0.602206
1281485907217,0.607109
1281485967217,0.619261
1281486027217,0.612924
1281486087217,0.618197
1281486147217,0.608270
1281486207217,0.608553
1281486267217,0.616542
1281486327217,0.610456
1281486387217,0.611390
1281486447217,0.606012
1281486507217,0.605157
1281486567217,0.607752
1281486627217,0.615225
1281486687217,0.608975
1281486747217,0.607919
1281486807217,0.603674
1281486867217,0.606476
1281486927217,0.605474
1281486987217,0.611450
1281487047217,0.603414
1281487107217,0.607865
1281487167217,0.608605
1281487227217,0.603727
1281487287217,0.609462
1281487347217,0.603425
1281487407217,0.615083
1281487467217,0.610863
1281487527217,0.608083
1281487587217,0.613105
1281487647217,0.615503
1281487707217,0.608528
1281487767217,0.605458
1281487827217,0.619345
1281487887217,0.612297
1281487947217,0.611278
1281488007217,0.607693
1281488067217,0.603795
1281488127217,0.615545
1281488187217,0.612853
1281488247217,0.609715
1281488307217,0.606296
1281488367217,0.605489
1281488427226,0.608078
1281488487226,0.608010
1281488547226,0.608413
1281488607226,0.614065
1281488667226,0.609380
1281488727226,0.603670
1281488787226,0.606596
1281488847226,0.605875
1281488907226,0.612965
1281488967226,0.602544
1281489027226,0.600786
1281489087226,0.607568
1281489147226,0.611166
1281489207226,0.607097
1281489267226,0.607450
1281489327226,0.608103
1281489387226,0.608751
1281489447226,0.603625
1281489507226,0.610236
1281489567226,0.605753
1281489627226,0.606751
1281489687226,0.608778
1281489747226,0.609667
1281489807226,0.602380
1281489867226,0.609077
1281489927226,0.607128
1281489987226,0.603015
1281490047226,0.615687
1281490107226,0.610189
1281490167226,0.607501
1281490227226,0.606165
1281490287226,0.615747
1281490347226,0.609831
1281490407226,0.606592
1281490467226,0.617989
1281490527226,0.607234
1281490587226,0.607774
1281490647226,0.600910
1281490707226,0.609055
1281490767226,0.608304
1281490827226,0.605084
1281490887226,0.608838
1281490947226,0.609356
1281491007226,0.609954
1281491067226,0.608219
1281491127226,0.607524
1281491187226,0.614769
1281491247226,0.618389
1281491307226,0.612517
1281491367226,0.612144
1281491427226,0.612974
1281491487226,0.613384
1281491547226,0.612008
1281491607226,0.613927
1281491667226,0.611596
1281491727226,0.613916
1281491787226,0.608334
1281491847226,0.609584
1281491907226,0.612074
1281491967226,0.617060
1281492027235,0.607246
1281492087235,0.610694
1281492147235,0.610700
1281492207235,0.610851
1281492267235,0.609912
1281492327235,0.606896
1281492387235,0.606364
1281492447235,0.604320
1281492507235,0.604821
1281492567235,0.610591
1281492627235,0.616904
1281492687235,0.607616
1281492747235,0.616250
1281492807235,0.610476
1281492867235,0.608359
1281492927235,0.610878
1281492987235,0.612840
1281493047235,0.620694
1281493107235,0.613512
1281493167235,0.610447
1281493227235,0.613260
1281493287235,0.608383
1281493347235,0.614158
1281493407235,0.616423
1281493467235,0.605303
1281493527235,0.610440
1281493587235,0.605200
1281493647235,0.605283
1281493707235,0.607078
1281493767235,0.607169
1281493827235,0.610761
1281493887235,0.605519
1281493947235,0.603279
1281494007235,0.607747
1281494067235,0.608369
1281494127235,0.613898
1281494187235,0.611707
1281494247235,0.610014
1281494307235,0.619067
1281494367235,0.616773
1281494427235,0.612618
1281494487235,0.610317
1281494547235,0.606668
1281494607235,0.612203
1281494667235,0.605895
1281494727235,0.614011
1281494787235,0.615691
1281494847235,0.618516
1281494907235,0.616675
1281494967235,0.609688
1281495027235,0.613386
1281495087235,0.611459
1281495147235,0.612657
1281495207235,0.613030
1281495267235,0.614964
1281495327235,0.606439
1281495387235,0.613509
1281495447235,0.616052
1281495507235,0.611137
1281495567235,0.608649
1281495627244,0.613927
1281495687244,0.610759
1281495747244,0.615912
1281495807244,0.606888
1281495867244,0.615399
1281495927244,0.606466
1281495987244,0.605361
1281496047244,0.607724
1281496107244,0.613366
1281496167244,0.615847
1281496227244,0.609299
1281496287244,0.612436
1281496347244,0.615966
1281496407244,0.612635
1281496467244,0.613984
1281496527244,0.610023
1281496587244,0.613211
1281496647244,0.609315
1281496707244,0.612552
1281496767244,0.614033
1281496827244,0.613021
1281496887244,0.608676
1281496947244,0.612229
1281497007244,0.612427
1281497067244,0.604536
1281497127244,0.616651
1281497187244,0.609857
1281497247244,0.613731
1281497307244,0.616398
1281497367244,0.607890
1281497427244,0.611156
1281497487244,0.617086
1281497547244,0.614904
1281497607244,0.603761
1281497667244,0.612683
1281497727244,0.608295
1281497787244,0.611189
1281497847244,0.606821
1281497907244,0.609293
1281497967244,0.607343
1281498027244,0.618028
1281498087244,0.614804
1281498147244,0.614191
1281498207244,0.605516
1281498267244,0.612802
1281498327244,0.609843
1281498387244,0.608513
1281498447244,0.614800
1281498507244,0.611494
1281498567244,0.610079
1281498627244,0.603325
1281498687244,0.611547
1281498747244,0.613366
1281498807244,0.613232
1281498867244,0.612171
1281498927244,0.610031
1281498987244,0.612761
1281499047244,0.622090
1281499107244,0.608006
1281499167244,0.613505
1281499227253,0.611103
1281499287253,0.610692
1281499347253,0.611510
1281499407253,0.608567
1281499467253,0.608143
1281499527253,0.609380
1281499587253,0.609189
1281499647253,0.612469
1281499707253,0.607521
1281499767253,0.612157
1281499827253,0.610692
1281499887253,0.612489
1281499947253,0.611454
1281500007253,0.613676
1281500067253,0.611622
1281500127253,0.610066
1281500187253,0.609067
1281500247253,0.609764
1281500307253,0.603146
1281500367253,0.610914
1281500427253,0.611147
1281500487253,0.604534
1281500547253,0.609493
1281500607253,0.611770
1281500667253,0.609617
1281500727253,0.611367
1281500787253,0.611592
1281500847253,0.611419
1281500907253,0.612665
1281500967253,0.607940
1281501027253,0.600448
1281501087253,0.612955
1281501147253,0.607234
1281501207253,0.607783
1281501267253,0.608520
1281501327253,0.605052
1281501387253,0.609675
1281501447253,0.605537
1281501507253,0.608906
1281501567253,0.609995
1281501627253,0.605708
1281501687253,0.605811
1281501747253,0.606584
1281501807253,0.601626
1281501867253,0.604677
1281501927253,0.607187
1281501987253,0.603830
1281502047253,0.605832
1281502107253,0.608270
1281502167253,0.607306
1281502227253,0.611190
1281502287253,0.607183
1281502347253,0.608304
1281502407253,0.607590
1281502467253,0.604804
1281502527253,0.606118
1281502587253,0.603392
1281502647253,0.608996
1281502707253,0.600701
1281502767253,0.602843
1281502827262,0.598619
1281502887262,0.610851
1281503427262,0.609846
1281503487262,0.601315
1281503547262,0.607356
1281503607262,0.602966
1281503667262,0.605511
1281503727262,0.606303
1281503787262,0.609498
1281503847262,0.606373
1281503907262,0.604715
1281503967262,0.611362
1281504027262,0.606888
1281504087262,0.607475
1281504147262,0.603584
1281504207262,0.607170
1281504267262,0.600144
1281504327262,0.602988
1281504387262,0.602260
1281504447262,0.606264
1281504507262,0.605791
1281504567262,0.603918
1281504627262,0.604729
1281504687262,0.602670
1281504747262,0.604762
1281504807262,0.600424
1281504867262,0.598994
1281504927262,0.608721
1281504987262,0.605608
1281505047262,0.603853
1281505107262,0.607394
1281505167262,0.606315
1281505227262,0.606434
1281505287262,0.597151
1281505347262,0.612701
1281505407262,0.607530
1281505467262,0.603796
1281505527262,0.601001
1281505587262,0.608143
1281505647262,0.606728
1281505707262,0.600582
1281505767262,0.603488
1281505827262,0.603821
1281505887262,0.608997
1281505947262,0.610563
1281506007262,0.604714
1281506067262,0.606036
1281506127262,0.604392
1281506187262,0.605558
1281506247262,0.608902
1281506307262,0.608896
1281506367262,0.601818
1281506427270,0.602361
1281506487270,0.607411
1281506547270,0.607240
1281506607270,0.609775
1281506667270,0.609093
1281506727270,0.608656
1281506787270,0.604541
1281506847270,0.603940
1281506907270,0.608788
1281506967270,0.602907
1281507027270,0.606572
1281507087270,0.610221
1281507147270,0.616182
1281507207270,0.611761
1281507267270,0.612340
1281507327270,0.613644
1281507387270,0.603834
1281507447270,0.612726
1281507507270,0.609811
1281507567270,0.600499
1281507627270,0.606725
1281507687270,0.610458
1281507747270,0.608843
1281507807270,0.606378
1281507867270,0.609648
1281507927270,0.613558
1281507987270,0.613456
1281508047270,0.615782
1281508107270,0.607919
1281508167270,0.607269
1281508227270,0.603675
1281508287270,0.610644
1281508347270,0.604772
1281508407270,0.611821
1281508467270,0.613588
1281508527270,0.607822
1281508587270,0.600852
1281508647270,0.606283
1281508707270,0.604646
1281508767270,0.604579
1281508827270,0.614916
1281508887270,0.604136
1281508947270,0.606168
1281509007270,0.604683
1281509067270,0.608713
1281509127270,0.604382
1281509187270,0.604152
1281509247270,0.604117
1281509307270,0.603914
1281509367270,0.607272
1281509427270,0.600741
1281509487270,0.605872
1281509547270,0.606255
1281509607270,0.607223
1281509667270,0.610441
1281509727270,0.612897
1281509787270,0.605141
1281509847270,0.607879
1281509907270,0.611129
1281509967270,0.609560
1281510027279,0.598273
1281510087279,0.608297
1281510147279,0.601870
1281510207279,0.598434
1281510267279,0.606653
1281510327279,0.603124
1281510387279,0.605808
1281510447279,0.612970
1281510507279,0.606083
1281510567279,0.605177
1281510627279,0.608640
1281510687279,0.607743
1281510747279,0.606474
1281510807279,0.606380
1281510867279,0.610011
1281510927279,0.606822
1281510987279,0.605928
1281511047279,0.617591
1281511107279,0.606871
1281511167279,0.619493
1281511227279,0.617819
1281511287279,0.614863
1281511347279,0.611345
1281511407279,0.605299
1281511467279,0.614086
1281511527279,0.610201
1281511587279,0.611479
1281511647279,0.614509
1281511707279,0.615214
1281511767279,0.611174
1281511827279,0.610604
1281511887279,0.612139
1281511947279,0.612293
1281512007279,0.612932
1281512067279,0.609066
1281512127279,0.616039
1281512187279,0.610363
1281512247279,0.614909
1281512307279,0.611858
1281512367279,0.609710
1281512427279,0.612096
1281512487279,0.609716
1281512547279,0.611886
1281512607279,0.606149
1281512667279,0.611282
1281512727279,0.610416
1281512787279,0.613306
1281512847279,0.607936
1281512907279,0.612585
1281512967279,0.611788
1281513027279,0.604583
1281513087279,0.617227
1281513147279,0.609982
1281513207279,0.609561
1281513267279,0.608738
1281513327279,0.612262
1281513387279,0.608449
1281513447279,0.612948
1281513507279,0.612633
1281513567279,0.611612
1281513627288,0.617358
1281513687288,0.623061
1281513747288,0.621152
1281513807288,0.622910
1281513867288,0.624923
1281513927288,0.623326
1281513987288,0.619903
1281514047288,0.625905
1281514107288,0.618593
1281514167288,0.618076
1281514227288,0.618468
1281514287288,0.617508
1281514347288,0.623039
1281514407288,0.614340
1281514467288,0.621301
1281514527288,0.620125
1281514587288,0.618374
1281514647288,0.624054
1281514707288,0.627765
1281514767288,0.620282
1281514827288,0.617868
1281514887288,0.622331
1281514947288,0.622378
1281515007288,0.622413
1281515067288,0.621318
1281515127288,0.619183
1281515187288,0.621331
1281515247288,0.620367
1281515307288,0.617635
1281515367288,0.622462
1281515427288,0.613027
1281515487288,0.619667
1281515547288,0.618293
1281515607288,0.623570
1281515667288,0.619753
1281515727288,0.616934
1281515787288,0.615147
1281515847288,0.612345
1281515907288,0.618580
1281515967288,0.613804
1281516027288,0.614115
1281516087288,0.616389
1281516147288,0.613098
1281516207288,0.615407
1281516267288,0.614556
1281516327288,0.609074
1281516387288,0.612598
1281516447288,0.614987
1281516507288,0.611495
1281516567288,0.609492
1281516627288,0.616882
1281516687288,0.608923
1281516747288,0.612290
1281516807288,0.610586
1281516867288,0.608307
1281516927288,0.608810
1281516987288,0.612203
1281517047288,0.615075
1281517107288,0.599980
1281517167288,0.608220
1281517227296,0.605213
1281517287296,0.604778
1281517347296,0.614124
1281517407296,0.608580
1281517467296,0.607815
1281517527296,0.603200
1281517587296,0.604816
1281517647296,0.610429
1281517707296,0.605255
1281517767296,0.607069
1281517827296,0.601426
1281517887296,0.605329
1281517947296,0.606357
1281518007296,0.603318
1281518067296,0.602263
1281518127296,0.608588
1281518187296,0.603708
1281518247296,0.608846
1281518307296,0.603569
1281518367296,0.610425
1281518427296,0.603910
1281518487296,0.600182
1281518547296,0.609285
1281518607296,0.604586
1281518667296,0.602246
1281518727296,0.601242
1281518787296,0.604313
1281518847296,0.605548
1281518907296,0.602185
1281518967296,0.608218
1281519027296,0.619319
1281519087296,0.608211
1281519147296,0.605743
1281519207296,0.609171
1281519267296,0.607896
1281519327296,0.604120
1281519387296,0.609118
1281519447296,0.602816
1281519507296,0.606316
1281519567296,0.602249
1281519627296,0.611619
1281519687296,0.608019
1281519747296,0.602695
1281519807296,0.607826
1281519867296,0.614882
1281519927296,0.608248
1281519987296,0.608368
1281520047296,0.612791
1281520107296,0.604026
1281520167296,0.605511
1281520227296,0.606894
1281520287296,0.606748
1281520347296,0.604967
1281520407296,0.607371
1281520467296,0.608384
1281520527296,0.607991
1281520587296,0.604680
1281520647296,0.608998
1281520707296,0.606650
1281520767296,0.600512
1281520827305,0.604198
1281520887305,0.607511
1281520947305,0.607096
1281521007305,0.602453
1281521067305,0.601768
1281521127305,0.605698
1281521187305,0.608771
1281521247305,0.604374
1281521307305,0.610325
1281521367305,0.607885
1281521427305,0.604590
1281521487305,0.605504
1281521547305,0.606959
1281521607305,0.606310
1281521667305,0.605015
1281521727305,0.607683
1281521787305,0.607144
1281521847305,0.611374
1281521907305,0.606806
1281521967305,0.599177
1281522027305,0.599896
1281522087305,0.618818
1281522147305,0.605434
1281522207305,0.604005
1281522267305,0.606171
1281522327305,0.602176
1281522387305,0.600584
1281522447305,0.603986
1281522507305,0.602691
1281522567305,0.603969
1281522627305,0.607290
1281522687305,0.606352
1281522747305,0.605434
1281522807305,0.608611
1281522867305,0.604845
1281522927305,0.615969
1281522987305,0.600366
1281523047305,0.607082
1281523107305,0.603112
1281523167305,0.602429
1281523227305,0.609534
1281523287305,0.604605
1281523347305,0.608623
1281523407305,0.601417
1281523467305,0.609169
1281523527305,0.607964
1281523587305,0.608311
1281523647305,0.601757
1281523707305,0.604038
1281523767305,0.601614
1281523827305,0.607925
1281523887305,0.605438
1281523947305,0.606116
1281524007305,0.604998
1281524067305,0.606202
1281524127305,0.607459
1281524187305,0.605529
1281524247305,0.605913
1281524307305,0.607150
1281524367305,0.607160
1281524427314,0.612030
1281524487314,0.617324
1281524547314,0.614966
1281524607314,0.615128
1281524667314,0.613366
1281524727314,0.614281
1281524787314,0.608270
1281524847314,0.615894
1281524907314,0.620797
1281524967314,0.609282
1281525027314,0.607213
1281525087314,0.616976
1281525147314,0.611654
1281525207314,0.612488
1281525267314,0.610768
1281525327314,0.617417
1281525387314,0.610055
1281525447314,0.608213
1281525507314,0.602290
1281525567314,0.603556
1281525627314,0.620397
1281525687314,0.613151
1281525747314,0.610919
1281525807314,0.607315
1281525867314,0.610901
1281525927314,0.606247
1281525987314,0.614773
1281526047314,0.609079
1281526107314,0.611259
1281526167314,0.612756
1281526227314,0.607766
1281526287314,0.607181
1281526347314,0.612387
1281526407314,0.604123
1281526467314,0.611197
1281526527314,0.608301
1281526587314,0.611841
1281526647314,0.606271
1281526707314,0.604456
1281526767314,0.604729
1281526827314,0.607228
1281526887314,0.608583
1281526947314,0.608623
1281527007314,0.605656
1281527067314,0.606327
1281527127314,0.612969
1281527187314,0.612909
1281527247314,0.610800
1281527307314,0.615594
1281527367314,0.612531
1281527427314,0.613914
1281527487314,0.610018
1281527547314,0.609679
1281527607314,0.611929
1281527667314,0.605910
1281527727314,0.612554
1281527787314,0.607223
1281527847314,0.608761
1281527907314,0.611122
1281527967314,0.607478
1281528027322,0.608343
1281528087322,0.602013
1281528147322,0.596479
1281528207322,0.600988
1281528267322,0.610603
1281528327322,0.610626
1281528387322,0.621843
1281528447322,0.626176
1281528507322,0.623167
1281528567322,0.614490
1281528627322,0.619150
1281528687322,0.610490
1281528747322,0.617081
1281528807322,0.611578
1281528867322,0.608798
1281528927322,0.607201
1281528987322,0.607127
1281529047322,0.612850
1281529107322,0.608517
1281529167322,0.608776
1281529227322,0.607370
1281529287322,0.604315
1281529347322,0.607953
1281529407322,0.610175
1281529467322,0.615290
1281529527322,0.609466
1281529587322,0.612118
1281529647322,0.608261
1281529707322,0.604608
1281529767322,0.612078
1281529827322,0.610705
1281529887322,0.616396
1281529947322,0.608473
1281530007322,0.611870
1281530067322,0.609584
1281530127322,0.604448
1281530187322,0.608086
1281530247322,0.613172
1281530307322,0.605644
1281530367322,0.605714
1281530427322,0.608497
1281530487322,0.608133
1281530547322,0.609318
1281530607322,0.608224
1281530667322,0.612667
1281530727322,0.609855
1281530787322,0.608367
1281530847322,0.610237
1281530907322,0.613363
1281530967322,0.609639
1281531027322,0.609341
1281531087322,0.617674
1281531147322,0.612956
1281531207322,0.608064
1281531267322,0.611176
1281531327322,0.605265
1281531387322,0.613835
1281531447322,0.610358
1281531507322,0.606888
1281531567322,0.617217
1281531627331,0.611609
1281531687331,0.616945
1281531747331,0.615882
1281531807331,0.613467
1281531867331,0.609270
1281531927331,0.616664
1281531987331,0.611369
1281532047331,0.605062
1281532107331,0.614222
1281532167331,0.606327
1281532227331,0.612306
1281532287331,0.611606
1281532347331,0.612393
1281532407331,0.608460
1281532467331,0.610812
1281532527331,0.614949
1281532587331,0.612771
1281532647331,0.606465
1281532707331,0.611416
1281532767331,0.612572
1281532827331,0.606495
1281532887331,0.610743
1281532947331,0.606509
1281533007331,0.610453
1281533067331,0.611119
1281533127331,0.615396
1281533187331,0.607836
1281533247331,0.610511
1281533307331,0.616666
1281533367331,0.614753
1281533427331,0.612487
1281533487331,0.611253
1281533547331,0.612987
1281533607331,0.612307
1281533667331,0.612652
1281533727331,0.613079
1281533787331,0.607338
1281533847331,0.606198
1281533907331,0.616400
1281533967331,0.604256
1281534027331,0.611620
1281534087331,0.611483
1281534147331,0.612411
1281534207331,0.624247
1281534267331,0.621954
1281534327331,0.624039
1281534387331,0.626260
1281534447331,0.629569
1281534507331,0.629459
1281534567331,0.637804
1281534627331,0.628143
1281534687331,0.635848
1281534747331,0.634971
1281534807331,0.634386
1281534867331,0.633151
1281534927331,0.633444
1281534987331,0.624711
1281535047331,0.615162
1281535107331,0.628332
1281535167331,0.622950
1281535227341,0.620208
1281535287341,0.625652
1281535347341,0.620342
1281535407341,0.622111
1281535467341,0.622335
1281535527341,0.621014
1281535587341,0.614189
1281535647341,0.616897
1281535707341,0.615136
1281535767341,0.616459
1281535827341,0.612464
1281535887341,0.618461
1281535947341,0.617600
1281536007341,0.618328
1281536067341,0.615485
1281536127341,0.611816
1281536187341,0.612130
1281536247341,0.609213
1281536307341,0.617510
1281536367341,0.618402
1281536427341,0.612274
1281536487341,0.617764
1281536547341,0.612846
1281536607341,0.610990
1281536667341,0.618923
1281536727341,0.617998
1281536787341,0.616133
1281536847341,0.614571
1281536907341,0.610084
1281536967341,0.611162
1281537027341,0.610205
1281537087341,0.618499
1281537147341,0.611655
1281537207341,0.604452
1281537267341,0.621903
1281537327341,0.608772
1281537387341,0.609554
1281537447341,0.609367
1281537507341,0.619559
1281537567341,0.607773
1281537627341,0.616862
1281537687341,0.616941
1281537747341,0.615740
1281537807341,0.615896
1281537867341,0.611720
1281537927341,0.617416
1281537987341,0.618068
1281538047341,0.616153
1281538107341,0.619719
1281538167341,0.611596
1281538227341,0.613147
1281538287341,0.619758
1281538347341,0.611968
1281538407341,0.616415
1281538467341,0.620267
1281538527341,0.620736
1281538587341,0.608616
1281538647341,0.614207
1281538707341,0.619180
1281538767341,0.622861
1281538827350,0.617152
1281538887350,0.619008
1281538947350,0.616926
1281539007350,0.613158
1281539067350,0.615360
1281539127350,0.620339
1281539187350,0.616394
1281539247350,0.617627
1281539307350,0.610647
1281539367350,0.614858
1281539427350,0.612341
1281539487350,0.619874
1281539547350,0.619002
1281539607350,0.610717
1281539667350,0.612285
1281539727350,0.615573
1281539787350,0.622319
1281539847350,0.618477
1281539907350,0.617167
1281539967350,0.617182
1281540027350,0.610098
1281540087350,0.620765
1281540147350,0.623401
1281540207350,0.619351
1281540267350,0.615554
1281540327350,0.620334
1281540387350,0.609525
1281540447350,0.611998
1281540507350,0.618591
1281540567350,0.617826
1281540627350,0.615633
1281540687350,0.614144
1281540747350,0.614234
1281540807350,0.612282
1281540867350,0.615805
1281540927350,0.614493
1281540987350,0.616510
1281541047350,0.619359
1281541107350,0.608964
1281541167350,0.614516
1281541227350,0.617150
1281541287350,0.616363
1281541347350,0.622035
1281541407350,0.621069
1281541467350,0.614948
1281541527350,0.620094
1281541587350,0.619034
1281541647350,0.616880
1281541707350,0.621341
1281541767350,0.621695
1281541827350,0.621609
1281541887350,0.621154
1281541947350,0.617005
1281542007350,0.624264
1281542067350,0.615116
1281542127350,0.619299
1281542187350,0.614282
1281542247350,0.617713
1281542307350,0.618283
1281542367350,0.624132
1281542427360,0.620823
1281542487360,0.628243
1281542547360,0.619952
1281542607360,0.622825
1281542667360,0.624542
1281542727360,0.621274
1281542787360,0.628380
1281542847360,0.625358
1281542907360,0.625215
1281542967360,0.626199
1281543027360,0.621555
1281543087360,0.618992
1281543147360,0.615184
1281543207360,0.621036
1281543267360,0.620451
1281543327360,0.626341
1281543387360,0.623164
1281543447360,0.629144
1281543507360,0.618944
1281543567360,0.616896
1281543627360,0.625496
1281543687360,0.620636
1281543747360,0.629085
1281543807360,0.632159
1281543867360,0.628142
1281543927360,0.630951
1281543987360,0.628481
1281544047360,0.630238
1281544107360,0.632357
1281544167360,0.630774
1281544227360,0.624756
1281544287360,0.621395
1281544347360,0.622328
1281544407360,0.627533
1281544467360,0.621897
1281544527360,0.629958
1281544587360,0.626134
1281544647360,0.623575
1281544707360,0.628034
1281544767360,0.626764
1281544827360,0.625943
1281544887360,0.621217
1281544947360,0.622363
1281545007360,0.626585
1281545067360,0.620164
1281545127360,0.620626
1281545187360,0.616936
1281545247360,0.615790
1281545307360,0.618521
1281545367360,0.622982
1281545427360,0.627739
1281545487360,0.624317
1281545547360,0.619908
1281545607360,0.617848
1281545667360,0.618702
1281545727360,0.624239
1281545787360,0.623016
1281545847360,0.628019
1281545907360,0.619413
1281545967360,0.625818
1281546027370,0.622550
1281546087370,0.621244
1281546147370,0.623329
1281546207370,0.623692
1281546267370,0.625902
1281546327370,0.617682
1281546387370,0.619899
1281546447370,0.620894
1281546507370,0.615513
1281546567370,0.606958
1281546627370,0.620452
1281546687370,0.622026
1281546747370,0.614901
1281546807370,0.611964
1281546867370,0.625420
1281546927370,0.621984
1281546987370,0.616439
1281547047370,0.608986
1281547107370,0.614331
1281547167370,0.618411
1281547227370,0.615740
1281547287370,0.613470
1281547347370,0.617110
1281547407370,0.615022
1281547467370,0.616758
1281547527370,0.616083
1281547587370,0.614803
1281547647370,0.613786
1281547707370,0.619203
1281547767370,0.613751
1281547827370,0.623094